Regional Weather Roundup
Issued by NWS

Home | Current Version | Previous Version | Text Only | Print | Product List | Glossary Off
Versions: 1 2 3 4 5 6 7 8 9 10 11 12 13 14 15 16 17 18 19 20 21 22 23 24 25 26 27 28 29 30 31 32 33 34 35 36 37 38 39 40 41 42 43 44 45 46 47 48 49 50

000
ASUS43 KLMK 061302
RWRKY
KENTUCKY REGIONAL WEATHER ROUNDUP
NATIONAL WEATHER SERVICE LOUISVILLE KY
800 AM EST FRI MAR 06 2015

NOTE "FAIR" INDICATES FEW OR NO CLOUDS BELOW 12,000 FEET
WITH NO SIGNIFICANT WEATHER AND/OR OBSTRUCTIONS TO VISIBILITY.

KYZ001>023-026-027-061>063-070>075-061400-
WESTERN AND SOUTH CENTRAL KENTUCKY

CITY           SKY/WX    TMP DP  RH WIND       PRES   REMARKS
PADUCAH        PTCLDY    -2  -6  83 W6        30.59R WCI -14
HENDERSON      PTCLDY    -2  -8  78 CALM      30.59R
OWENSBORO      PTCLDY     1  -3  83 CALM      30.59S
HOPKINSVILLE   PTCLDY     0  -4  82 CALM      30.57S
BOWLING GREEN  MOCLDY     3  -1  83 CALM      30.59R FOG
GLASGOW        NOT AVBL
$$

KYZ024-025-028>034-038-045-046-053-061400-
NORTH CENTRAL KENTUCKY

CITY           SKY/WX    TMP DP  RH WIND       PRES   REMARKS
LOUISVILLE/SDF MOCLDY    10   7  87 SE3       30.58R FOG
LOUISVILLE/LOU MOCLDY     6   4  91 CALM      30.58S FOG
FORT KNOX      HAZE       1  -3  83 CALM      30.54R VSB<1/4
$$

KYZ035>037-039>044-047>052-055>060-089>105-061400-
NORTHEAST KENTUCKY

CITY           SKY/WX    TMP DP  RH WIND       PRES   REMARKS
LEXINGTON      MOSUNNY   -2  -3  96 SE5       30.54R WCI -12
COVINGTON      PTCLDY     4   1  88 CALM      30.54R
FRANKFORT      PTCLDY    -6  -9  86 CALM      30.55R FOG
$$

KYZ054-064>069-076>088-106>120-061400-
SOUTHEAST KENTUCKY

CITY           SKY/WX    TMP DP  RH WIND       PRES   REMARKS
JACKSON        MOSUNNY   10   7  87 CALM      30.49R
LONDON         MOSUNNY    5  -1  76 NW3       30.50R
SOMERSET       NOT AVBL
MIDDLESBORO    MOSUNNY   12  10  91 CALM      30.51R
MONTICELLO     HAZE      -8 -13  78 CALM      30.56R VSB 1/4
$$



USA.gov is the U.S. government's official web portal to all federal, state and local government web resources and services.